Time,TemperatureF,DewpointF,PressureIn,WindDirection,WindDirectionDegrees,WindSpeedMPH,WindSpeedGustMPH,Humidity,HourlyPrecipIn,Conditions,Clouds,dailyrainin,SolarRadiationWatts/m^2,SoftwareType,DateUTC
2013-01-25 00:03:00,25.0,4.0,30.66,SE,145,4.0,9.0,40,0.00,,,0.00,0.000000,,2013-01-25 05:03:00,
2013-01-25 00:32:00,24.0,5.0,30.66,ESE,115,5.0,11.0,44,0.00,,,0.00,0.000000,,2013-01-25 05:32:00,
2013-01-25 00:43:00,24.0,5.0,30.66,ESE,115,5.0,11.0,44,0.00,,,0.00,0.000000,,2013-01-25 05:43:00,
2013-01-25 00:52:00,24.0,5.0,30.66,ESE,115,5.0,11.0,44,0.00,,,0.00,0.000000,,2013-01-25 05:52:00,
2013-01-25 01:02:00,24.0,5.0,30.66,ESE,115,5.0,11.0,44,0.00,,,0.00,0.000000,,2013-01-25 06:02:00,
2013-01-25 01:32:00,24.0,3.0,30.67,SSE,166,8.0,16.0,40,0.00,,,0.00,0.000000,,2013-01-25 06:32:00,
2013-01-25 01:42:00,24.0,3.0,30.67,SSE,166,8.0,16.0,40,0.00,,,0.00,0.000000,,2013-01-25 06:42:00,
2013-01-25 01:52:00,24.0,3.0,30.67,SSE,166,8.0,16.0,40,0.00,,,0.00,0.000000,,2013-01-25 06:52:00,
2013-01-25 02:02:00,24.0,3.0,30.67,SSE,166,8.0,16.0,40,0.00,,,0.00,0.000000,,2013-01-25 07:02:00,
2013-01-25 02:32:00,23.0,2.0,30.67,SSE,156,7.0,15.0,40,0.00,,,0.00,0.000000,,2013-01-25 07:32:00,
2013-01-25 02:42:00,23.0,2.0,30.67,SSE,156,7.0,15.0,40,0.00,,,0.00,0.000000,,2013-01-25 07:42:00,
2013-01-25 02:52:00,23.0,2.0,30.67,SSE,156,7.0,15.0,40,0.00,,,0.00,0.000000,,2013-01-25 07:52:00,
2013-01-25 03:02:00,23.0,2.0,30.67,SSE,156,7.0,15.0,40,0.00,,,0.00,0.000000,,2013-01-25 08:02:00,
2013-01-25 03:32:00,22.0,1.0,30.66,South,181,5.0,13.0,40,0.00,,,0.00,0.000000,,2013-01-25 08:32:00,
2013-01-25 03:42:00,22.0,1.0,30.66,South,181,5.0,13.0,40,0.00,,,0.00,0.000000,,2013-01-25 08:42:00,
2013-01-25 03:52:00,22.0,1.0,30.66,South,181,5.0,13.0,40,0.00,,,0.00,0.000000,,2013-01-25 08:52:00,
2013-01-25 04:02:00,22.0,1.0,30.66,South,181,5.0,13.0,40,0.00,,,0.00,0.000000,,2013-01-25 09:02:00,
2013-01-25 04:32:00,23.0,1.0,30.64,SSE,157,7.0,16.0,37,0.00,,,0.00,0.000000,,2013-01-25 09:32:00,
2013-01-25 04:42:00,23.0,1.0,30.64,SSE,157,7.0,16.0,37,0.00,,,0.00,0.000000,,2013-01-25 09:42:00,
2013-01-25 04:52:00,23.0,1.0,30.64,SSE,157,7.0,16.0,37,0.00,,,0.00,0.000000,,2013-01-25 09:52:00,
2013-01-25 05:02:00,23.0,1.0,30.64,SSE,157,7.0,16.0,37,0.00,,,0.00,0.000000,,2013-01-25 10:02:00,
2013-01-25 05:32:00,24.0,0.0,30.63,SE,143,6.0,16.0,35,0.00,,,0.00,0.000000,,2013-01-25 10:32:00,
2013-01-25 05:42:00,24.0,0.0,30.63,SE,143,6.0,16.0,35,0.00,,,0.00,0.000000,,2013-01-25 10:42:00,
2013-01-25 05:52:00,24.0,0.0,30.63,SE,143,6.0,16.0,35,0.00,,,0.00,0.000000,,2013-01-25 10:52:00,
2013-01-25 06:03:00,24.0,0.0,30.63,SE,143,6.0,16.0,35,0.00,,,0.00,0.000000,,2013-01-25 11:03:00,
2013-01-25 06:33:00,24.0,0.0,30.59,SSE,147,7.0,20.0,34,0.00,,,0.00,0.000000,,2013-01-25 11:33:00,
2013-01-25 06:42:00,24.0,0.0,30.59,SSE,147,7.0,20.0,34,0.00,,,0.00,0.000000,,2013-01-25 11:42:00,
2013-01-25 06:52:00,24.0,0.0,30.59,SSE,147,7.0,20.0,34,0.00,,,0.00,0.000000,,2013-01-25 11:52:00,
2013-01-25 07:03:00,24.0,0.0,30.59,SSE,147,7.0,20.0,34,0.00,,,0.00,0.000000,,2013-01-25 12:03:00,
2013-01-25 07:33:00,23.0,8.0,30.59,SE,141,7.0,20.0,51,0.00,,,0.00,0.000000,,2013-01-25 12:33:00,
2013-01-25 07:42:00,23.0,8.0,30.59,SE,141,7.0,20.0,51,0.00,,,0.00,0.000000,,2013-01-25 12:42:00,
2013-01-25 07:53:00,23.0,8.0,30.59,SE,141,7.0,20.0,51,0.00,,,0.00,0.000000,,2013-01-25 12:53:00,
2013-01-25 08:03:00,23.0,8.0,30.59,SE,141,7.0,20.0,51,0.00,,,0.00,0.000000,,2013-01-25 13:03:00,
2013-01-25 08:33:00,23.0,8.0,30.58,SE,142,6.0,16.0,53,0.00,,,0.00,0.000000,,2013-01-25 13:33:00,
2013-01-25 08:43:00,23.0,8.0,30.58,SE,142,6.0,16.0,53,0.00,,,0.00,0.000000,,2013-01-25 13:43:00,
2013-01-25 08:53:00,23.0,8.0,30.58,SE,142,6.0,16.0,53,0.00,,,0.00,0.000000,,2013-01-25 13:53:00,
2013-01-25 09:03:00,23.0,8.0,30.58,SE,142,6.0,16.0,53,0.00,,,0.00,0.000000,,2013-01-25 14:03:00,
2013-01-25 09:33:00,23.0,8.0,30.56,SE,136,10.0,21.0,53,0.00,,,0.00,11.000000,,2013-01-25 14:33:00,
2013-01-25 09:42:00,23.0,8.0,30.56,SE,136,10.0,21.0,53,0.00,,,0.00,11.000000,,2013-01-25 14:42:00,
2013-01-25 09:53:00,23.0,8.0,30.56,SE,136,10.0,21.0,53,0.00,,,0.00,11.000000,,2013-01-25 14:53:00,
2013-01-25 10:03:00,23.0,8.0,30.56,SE,136,10.0,21.0,53,0.00,,,0.00,11.000000,,2013-01-25 15:03:00,
2013-01-25 10:33:00,25.0,11.0,30.54,SSE,150,9.0,20.0,54,0.00,,,0.00,45.000000,,2013-01-25 15:33:00,
2013-01-25 10:43:00,25.0,11.0,30.54,SSE,150,9.0,20.0,54,0.00,,,0.00,45.000000,,2013-01-25 15:43:00,
2013-01-25 10:53:00,25.0,11.0,30.54,SSE,150,9.0,20.0,54,0.00,,,0.00,45.000000,,2013-01-25 15:53:00,
2013-01-25 11:03:00,25.0,11.0,30.54,SSE,150,9.0,20.0,54,0.00,,,0.00,45.000000,,2013-01-25 16:03:00,
2013-01-25 11:33:00,25.0,11.0,30.52,SSE,149,9.0,26.0,55,0.00,,,0.00,45.000000,,2013-01-25 16:33:00,
2013-01-25 11:43:00,25.0,11.0,30.52,SSE,149,9.0,26.0,55,0.00,,,0.00,45.000000,,2013-01-25 16:43:00,
2013-01-25 11:53:00,25.0,11.0,30.52,SSE,149,9.0,26.0,55,0.00,,,0.00,45.000000,,2013-01-25 16:53:00,
2013-01-25 12:03:00,25.0,11.0,30.52,SSE,149,9.0,26.0,55,0.00,,,0.00,45.000000,,2013-01-25 17:03:00,
2013-01-25 12:33:00,26.0,17.0,30.47,SE,144,9.0,19.0,68,0.00,,,0.00,20.000000,,2013-01-25 17:33:00,
2013-01-25 12:43:00,26.0,17.0,30.47,SE,144,9.0,19.0,68,0.00,,,0.00,20.000000,,2013-01-25 17:43:00,
2013-01-25 12:53:00,26.0,17.0,30.47,SE,144,9.0,19.0,68,0.00,,,0.00,20.000000,,2013-01-25 17:53:00,
2013-01-25 13:03:00,26.0,17.0,30.47,SE,144,9.0,19.0,68,0.00,,,0.00,20.000000,,2013-01-25 18:03:00,
2013-01-25 13:33:00,28.0,23.0,30.42,SSE,153,6.0,15.0,80,0.00,,,0.00,38.000000,,2013-01-25 18:33:00,
2013-01-25 13:43:00,28.0,23.0,30.42,SSE,153,6.0,15.0,80,0.00,,,0.00,38.000000,,2013-01-25 18:43:00,
2013-01-25 13:53:00,28.0,23.0,30.42,SSE,153,6.0,15.0,80,0.00,,,0.00,38.000000,,2013-01-25 18:53:00,
2013-01-25 14:03:00,28.0,23.0,30.42,SSE,153,6.0,15.0,80,0.00,,,0.00,38.000000,,2013-01-25 19:03:00,
2013-01-25 14:33:00,30.0,26.0,30.39,SSE,149,2.0,10.0,86,0.00,,,0.00,70.000000,,2013-01-25 19:33:00,
2013-01-25 14:42:00,30.0,26.0,30.39,SSE,149,2.0,10.0,86,0.00,,,0.00,70.000000,,2013-01-25 19:42:00,
2013-01-25 14:53:00,30.0,26.0,30.39,SSE,149,2.0,10.0,86,0.00,,,0.00,70.000000,,2013-01-25 19:53:00,
2013-01-25 15:03:00,30.0,26.0,30.39,SSE,149,2.0,10.0,86,0.00,,,0.00,70.000000,,2013-01-25 20:03:00,
2013-01-25 15:33:00,31.0,28.0,30.37,North,350,2.0,8.0,89,0.00,,,0.00,54.000000,,2013-01-25 20:33:00,
2013-01-25 15:43:00,31.0,28.0,30.37,North,350,2.0,8.0,89,0.00,,,0.00,54.000000,,2013-01-25 20:43:00,
2013-01-25 15:53:00,31.0,28.0,30.37,North,350,2.0,8.0,89,0.00,,,0.00,54.000000,,2013-01-25 20:53:00,
2013-01-25 16:02:00,31.0,28.0,30.37,North,350,2.0,8.0,89,0.00,,,0.00,54.000000,,2013-01-25 21:02:00,
2013-01-25 16:33:00,31.0,28.0,30.36,SSW,203,1.0,4.0,90,0.00,,,0.00,35.000000,,2013-01-25 21:33:00,
2013-01-25 16:43:00,31.0,28.0,30.36,SSW,203,1.0,4.0,90,0.00,,,0.00,35.000000,,2013-01-25 21:43:00,
2013-01-25 16:52:00,31.0,28.0,30.36,SSW,203,1.0,4.0,90,0.00,,,0.00,35.000000,,2013-01-25 21:52:00,
2013-01-25 17:03:00,31.0,28.0,30.36,SSW,203,1.0,4.0,90,0.00,,,0.00,35.000000,,2013-01-25 22:03:00,
2013-01-25 17:33:00,31.0,29.0,30.35,NNW,340,2.0,6.0,93,0.00,,,0.00,10.000000,,2013-01-25 22:33:00,
2013-01-25 17:42:00,31.0,29.0,30.35,NNW,340,2.0,6.0,93,0.00,,,0.00,10.000000,,2013-01-25 22:42:00,
2013-01-25 17:53:00,31.0,29.0,30.35,NNW,340,2.0,6.0,93,0.00,,,0.00,10.000000,,2013-01-25 22:53:00,
2013-01-25 18:02:00,31.0,29.0,30.35,NNW,340,2.0,6.0,93,0.00,,,0.00,10.000000,,2013-01-25 23:02:00,
2013-01-25 18:32:00,31.0,30.0,30.36,East,93,1.0,5.0,95,0.00,,,0.00,1.000000,,2013-01-25 23:32:00,
2013-01-25 18:42:00,31.0,30.0,30.36,East,93,1.0,5.0,95,0.00,,,0.00,1.000000,,2013-01-25 23:42:00,
2013-01-25 18:53:00,31.0,30.0,30.36,East,93,1.0,5.0,95,0.00,,,0.00,1.000000,,2013-01-25 23:53:00,
2013-01-25 19:02:00,31.0,30.0,30.36,East,93,1.0,5.0,95,0.00,,,0.00,1.000000,,2013-01-26 00:02:00,
2013-01-25 19:33:00,31.0,30.0,30.38,SSW,212,1.0,4.0,95,0.00,,,0.00,0.000000,,2013-01-26 00:33:00,
2013-01-25 19:42:00,31.0,30.0,30.38,SSW,212,1.0,4.0,95,0.00,,,0.00,0.000000,,2013-01-26 00:42:00,
2013-01-25 19:53:00,31.0,30.0,30.38,SSW,212,1.0,4.0,95,0.00,,,0.00,0.000000,,2013-01-26 00:53:00,
2013-01-25 20:02:00,31.0,30.0,30.38,SSW,212,1.0,4.0,95,0.00,,,0.00,0.000000,,2013-01-26 01:02:00,
2013-01-25 20:32:00,33.0,32.0,30.38,NE,52,2.0,14.0,97,0.00,,,0.00,0.000000,,2013-01-26 01:32:00,
2013-01-25 20:42:00,33.0,32.0,30.38,NE,52,2.0,14.0,97,0.00,,,0.00,0.000000,,2013-01-26 01:42:00,
2013-01-25 20:52:00,33.0,32.0,30.38,NE,52,2.0,14.0,97,0.00,,,0.00,0.000000,,2013-01-26 01:52:00,
2013-01-25 21:02:00,33.0,32.0,30.38,NE,52,2.0,14.0,97,0.00,,,0.00,0.000000,,2013-01-26 02:02:00,
2013-01-25 21:32:00,37.0,36.0,30.39,NNW,345,4.0,15.0,97,0.03,,,0.03,0.000000,,2013-01-26 02:32:00,
2013-01-25 21:42:00,37.0,36.0,30.39,NNW,345,4.0,15.0,97,0.03,,,0.03,0.000000,,2013-01-26 02:42:00,
2013-01-25 21:52:00,37.0,36.0,30.39,NNW,345,4.0,15.0,97,0.03,,,0.03,0.000000,,2013-01-26 02:52:00,
2013-01-25 22:02:00,37.0,36.0,30.39,NNW,345,4.0,15.0,97,0.03,,,0.03,0.000000,,2013-01-26 03:02:00,
2013-01-25 22:32:00,38.0,37.0,30.40,ESE,108,3.0,12.0,98,0.06,,,0.09,0.000000,,2013-01-26 03:32:00,
2013-01-25 22:43:00,38.0,37.0,30.40,ESE,108,3.0,12.0,98,0.06,,,0.09,0.000000,,2013-01-26 03:43:00,
2013-01-25 22:52:00,38.0,37.0,30.40,ESE,108,3.0,12.0,98,0.06,,,0.09,0.000000,,2013-01-26 03:52:00,
2013-01-25 23:02:00,38.0,37.0,30.40,ESE,108,3.0,12.0,98,0.06,,,0.09,0.000000,,2013-01-26 04:02:00,
2013-01-25 23:32:00,37.0,36.0,30.40,NNE,26,2.0,16.0,97,0.04,,,0.13,0.000000,,2013-01-26 04:32:00,
2013-01-25 23:43:00,37.0,36.0,30.40,NNE,26,2.0,16.0,97,0.04,,,0.13,0.000000,,2013-01-26 04:43:00,
2013-01-25 23:52:00,37.0,36.0,30.40,NNE,26,2.0,16.0,97,0.04,,,0.13,0.000000,,2013-01-26 04:52:00,